Time,TemperatureF,DewpointF,PressureIn,WindDirection,WindDirectionDegrees,WindSpeedMPH,WindSpeedGustMPH,Humidity,HourlyPrecipIn,Conditions,Clouds,dailyrainin,SoftwareType,DateUTC
2013-11-28 00:12:00,13.0,11.0,30.23,SSE,150,0.0,0.0,92,0.00,,,0.00,,2013-11-28 06:12:00,
2013-11-28 00:22:00,13.0,11.0,30.22,SSE,149,0.0,0.0,92,0.00,,,0.00,,2013-11-28 06:22:00,
2013-11-28 00:42:00,13.0,11.0,30.22,SSE,149,0.0,0.0,93,0.00,,,0.00,,2013-11-28 06:42:00,
2013-11-28 00:52:00,13.0,11.0,30.21,SSE,150,0.0,0.0,93,0.00,,,0.00,,2013-11-28 06:52:00,
2013-11-28 01:11:00,13.0,11.0,30.22,SSE,149,0.0,0.0,93,0.00,,,0.00,,2013-11-28 07:11:00,
2013-11-28 01:21:00,13.0,11.0,30.21,SSE,149,0.0,0.0,93,0.00,,,0.00,,2013-11-28 07:21:00,
2013-11-28 01:42:00,13.0,11.0,30.21,SSE,149,0.0,0.0,93,0.00,,,0.00,,2013-11-28 07:42:00,
2013-11-28 01:52:00,13.0,11.0,30.20,SSE,149,0.0,0.0,93,0.00,,,0.00,,2013-11-28 07:52:00,
2013-11-28 02:11:00,13.0,11.0,30.21,SSE,149,0.0,0.0,93,0.00,,,0.00,,2013-11-28 08:11:00,
2013-11-28 02:22:00,13.0,11.0,30.21,SSE,150,0.0,0.0,93,0.00,,,0.00,,2013-11-28 08:22:00,
2013-11-28 02:42:00,14.0,12.0,30.20,SSE,149,0.0,0.0,93,0.00,,,0.00,,2013-11-28 08:42:00,
2013-11-28 02:53:00,14.0,12.0,30.21,SSE,150,0.0,0.0,93,0.00,,,0.00,,2013-11-28 08:53:00,
2013-11-28 03:11:00,14.0,12.0,30.20,SSE,150,0.0,0.0,93,0.00,,,0.00,,2013-11-28 09:11:00,
2013-11-28 03:21:00,14.0,12.0,30.20,SSE,149,0.0,0.0,93,0.00,,,0.00,,2013-11-28 09:21:00,
2013-11-28 03:43:00,14.0,12.0,30.20,SSE,149,0.0,0.0,93,0.00,,,0.00,,2013-11-28 09:43:00,
2013-11-28 03:53:00,14.0,12.0,30.20,SSE,149,0.0,0.0,93,0.00,,,0.00,,2013-11-28 09:53:00,
2013-11-28 04:23:00,15.0,13.0,30.20,SSE,149,0.0,0.0,93,0.00,,,0.00,,2013-11-28 10:23:00,
2013-11-28 04:43:00,15.0,13.0,30.20,SSE,149,0.0,0.0,93,0.00,,,0.00,,2013-11-28 10:43:00,
2013-11-28 04:53:00,15.0,13.0,30.20,SSE,150,0.0,0.0,93,0.00,,,0.00,,2013-11-28 10:53:00,
2013-11-28 05:11:00,15.0,13.0,30.20,SSE,150,0.0,0.0,93,0.00,,,0.00,,2013-11-28 11:11:00,
2013-11-28 05:22:00,16.0,14.0,30.20,SSE,149,0.0,0.0,93,0.00,,,0.00,,2013-11-28 11:22:00,
2013-11-28 05:42:00,16.0,14.0,30.20,SSE,149,0.0,0.0,92,0.00,,,0.00,,2013-11-28 11:42:00,
2013-11-28 05:52:00,16.0,14.0,30.20,SSE,149,0.0,0.0,93,0.00,,,0.00,,2013-11-28 11:52:00,
2013-11-28 06:12:00,16.0,14.0,30.21,SSE,149,0.0,0.0,93,0.00,,,0.00,,2013-11-28 12:12:00,
2013-11-28 06:22:00,16.0,14.0,30.21,SSE,149,0.0,0.0,93,0.00,,,0.00,,2013-11-28 12:22:00,
2013-11-28 06:42:00,16.0,14.0,30.21,SSE,149,0.0,0.0,93,0.00,,,0.00,,2013-11-28 12:42:00,
2013-11-28 06:52:00,16.0,14.0,30.22,SSE,149,0.0,0.0,93,0.00,,,0.00,,2013-11-28 12:52:00,
2013-11-28 07:11:00,16.0,14.0,30.22,SSE,149,0.0,0.0,93,0.00,,,0.00,,2013-11-28 13:11:00,
2013-11-28 07:21:00,16.0,14.0,30.22,SSE,149,0.0,0.0,93,0.00,,,0.00,,2013-11-28 13:21:00,
2013-11-28 07:42:00,16.0,14.0,30.22,SSE,148,0.0,0.0,93,0.00,,,0.00,,2013-11-28 13:42:00,
2013-11-28 07:52:00,16.0,14.0,30.22,SSE,148,0.0,0.0,93,0.00,,,0.00,,2013-11-28 13:52:00,
2013-11-28 08:11:00,17.0,15.0,30.22,SSE,148,0.0,0.0,93,0.00,,,0.00,,2013-11-28 14:11:00,
2013-11-28 08:22:00,17.0,15.0,30.22,East,88,0.0,1.0,92,0.00,,,0.00,,2013-11-28 14:22:00,
2013-11-28 08:42:00,17.0,15.0,30.22,East,88,0.0,0.0,92,0.00,,,0.00,,2013-11-28 14:42:00,
2013-11-28 08:52:00,18.0,16.0,30.23,East,88,0.0,0.0,92,0.00,,,0.00,,2013-11-28 14:52:00,
2013-11-28 09:12:00,18.0,16.0,30.23,East,86,0.0,0.0,91,0.00,,,0.00,,2013-11-28 15:12:00,
2013-11-28 09:22:00,19.0,17.0,30.23,East,87,0.0,1.0,90,0.00,,,0.00,,2013-11-28 15:22:00,
2013-11-28 09:43:00,20.0,17.0,30.23,ESE,118,0.0,0.0,89,0.00,,,0.00,,2013-11-28 15:43:00,
2013-11-28 09:54:00,21.0,18.0,30.24,ESE,115,0.0,0.0,88,0.00,,,0.00,,2013-11-28 15:54:00,
2013-11-28 10:13:00,21.0,17.0,30.24,East,99,0.0,1.0,86,0.00,,,0.00,,2013-11-28 16:13:00,
2013-11-28 10:23:00,21.0,18.0,30.24,East,101,0.0,0.0,87,0.00,,,0.00,,2013-11-28 16:23:00,
2013-11-28 10:43:00,22.0,18.0,30.24,SE,143,0.0,1.0,85,0.00,,,0.00,,2013-11-28 16:43:00,
2013-11-28 10:54:00,22.0,18.0,30.24,ESE,113,0.0,0.0,84,0.00,,,0.00,,2013-11-28 16:54:00,
2013-11-28 11:12:00,23.0,19.0,30.23,SE,132,0.0,1.0,83,0.00,,,0.00,,2013-11-28 17:12:00,
2013-11-28 11:23:00,23.0,19.0,30.23,West,273,0.0,1.0,83,0.00,,,0.00,,2013-11-28 17:23:00,
2013-11-28 11:42:00,24.0,18.0,30.23,NW,325,0.0,1.0,79,0.00,,,0.00,,2013-11-28 17:42:00,
2013-11-28 11:52:00,24.0,19.0,30.23,WSW,245,0.0,1.0,81,0.00,,,0.00,,2013-11-28 17:52:00,
2013-11-28 12:11:00,24.0,18.0,30.23,West,273,0.0,1.0,79,0.00,,,0.00,,2013-11-28 18:11:00,
2013-11-28 12:22:00,23.0,18.0,30.23,NE,49,0.0,1.0,80,0.00,,,0.00,,2013-11-28 18:22:00,
2013-11-28 12:32:00,23.0,18.0,30.23,NE,49,0.0,1.0,80,0.00,,,0.00,,2013-11-28 18:32:00,
2013-11-28 12:42:00,23.0,18.0,30.23,NE,49,0.0,1.0,80,0.00,,,0.00,,2013-11-28 18:42:00,
2013-11-28 12:52:00,23.0,18.0,30.24,ENE,67,0.0,1.0,81,0.00,,,0.00,,2013-11-28 18:52:00,
2013-11-28 13:11:00,22.0,17.0,30.25,West,259,0.0,0.0,80,0.00,,,0.00,,2013-11-28 19:11:00,
2013-11-28 13:22:00,22.0,17.0,30.25,NW,321,0.0,0.0,81,0.00,,,0.00,,2013-11-28 19:22:00,
2013-11-28 13:42:00,22.0,17.0,30.26,ENE,75,0.0,1.0,80,0.00,,,0.00,,2013-11-28 19:42:00,
2013-11-28 13:52:00,23.0,18.0,30.26,WSW,256,0.0,3.0,80,0.00,,,0.00,,2013-11-28 19:52:00,
2013-11-28 14:12:00,23.0,17.0,30.26,NNW,330,0.0,1.0,77,0.00,,,0.00,,2013-11-28 20:12:00,
2013-11-28 14:22:00,23.0,17.0,30.27,SW,217,0.0,4.0,77,0.00,,,0.00,,2013-11-28 20:22:00,
2013-11-28 14:52:00,23.0,18.0,30.29,NW,308,0.0,1.0,81,0.00,,,0.00,,2013-11-28 20:52:00,
2013-11-28 15:11:00,23.0,17.0,30.29,West,269,0.0,1.0,79,0.00,,,0.00,,2013-11-28 21:11:00,
2013-11-28 15:21:00,23.0,18.0,30.30,West,274,0.0,1.0,81,0.00,,,0.00,,2013-11-28 21:21:00,
2013-11-28 15:43:00,22.0,18.0,30.30,West,275,0.0,0.0,83,0.00,,,0.00,,2013-11-28 21:43:00,
2013-11-28 15:53:00,20.0,16.0,30.31,West,275,0.0,0.0,85,0.00,,,0.00,,2013-11-28 21:53:00,
2013-11-28 16:13:00,19.0,16.0,30.32,West,276,0.0,0.0,87,0.00,,,0.00,,2013-11-28 22:13:00,
2013-11-28 16:23:00,19.0,16.0,30.33,West,276,0.0,0.0,89,0.00,,,0.00,,2013-11-28 22:23:00,
2013-11-28 16:42:00,19.0,17.0,30.34,West,275,0.0,0.0,91,0.00,,,0.00,,2013-11-28 22:42:00,
2013-11-28 16:53:00,19.0,17.0,30.35,WNW,293,0.0,0.0,91,0.00,,,0.00,,2013-11-28 22:53:00,
2013-11-28 17:12:00,20.0,18.0,30.35,WNW,293,0.0,0.0,91,0.00,,,0.00,,2013-11-28 23:12:00,
2013-11-28 17:21:00,19.0,17.0,30.36,WNW,293,0.0,0.0,91,0.00,,,0.00,,2013-11-28 23:21:00,
2013-11-28 17:42:00,17.0,15.0,30.37,WNW,292,0.0,0.0,91,0.00,,,0.00,,2013-11-28 23:42:00,
2013-11-28 17:52:00,16.0,14.0,30.37,WNW,292,0.0,0.0,91,0.00,,,0.00,,2013-11-28 23:52:00,
2013-11-28 18:11:00,15.0,13.0,30.38,WNW,293,0.0,0.0,92,0.00,,,0.00,,2013-11-29 00:11:00,
2013-11-28 18:21:00,13.0,11.0,30.39,WNW,292,0.0,0.0,92,0.00,,,0.00,,2013-11-29 00:21:00,
2013-11-28 18:42:00,12.0,10.0,30.40,WNW,292,0.0,0.0,91,0.00,,,0.00,,2013-11-29 00:42:00,
2013-11-28 18:52:00,10.0,8.0,30.40,WNW,293,0.0,0.0,91,0.00,,,0.00,,2013-11-29 00:52:00,
2013-11-28 19:12:00,9.0,7.0,30.41,WNW,293,0.0,0.0,91,0.00,,,0.00,,2013-11-29 01:12:00,
2013-11-28 19:21:00,8.0,6.0,30.42,WNW,293,0.0,0.0,91,0.00,,,0.00,,2013-11-29 01:21:00,
2013-11-28 19:42:00,6.0,4.0,30.43,WNW,293,0.0,0.0,91,0.00,,,0.00,,2013-11-29 01:42:00,
2013-11-28 19:52:00,6.0,4.0,30.43,WNW,293,0.0,0.0,91,0.00,,,0.00,,2013-11-29 01:52:00,
2013-11-28 20:21:00,5.0,3.0,30.43,WNW,293,0.0,0.0,93,0.00,,,0.00,,2013-11-29 02:21:00,
2013-11-28 20:42:00,5.0,3.0,30.43,WNW,293,0.0,0.0,92,0.00,,,0.00,,2013-11-29 02:42:00,
2013-11-28 20:52:00,4.0,2.0,30.44,WNW,293,0.0,0.0,92,0.00,,,0.00,,2013-11-29 02:52:00,
2013-11-28 21:21:00,3.0,1.0,30.45,WNW,293,0.0,0.0,91,0.00,,,0.00,,2013-11-29 03:21:00,
2013-11-28 21:43:00,2.0,0.0,30.45,WNW,293,0.0,0.0,90,0.00,,,0.00,,2013-11-29 03:43:00,
2013-11-28 21:53:00,1.0,-1.0,30.46,WNW,293,0.0,0.0,90,0.00,,,0.00,,2013-11-29 03:53:00,
2013-11-28 22:23:00,1.0,-1.0,30.47,WNW,292,0.0,0.0,91,0.00,,,0.00,,2013-11-29 04:23:00,
2013-11-28 22:43:00,0.0,-3.0,30.48,WNW,293,0.0,0.0,88,0.00,,,0.00,,2013-11-29 04:43:00,